Starlink 4147

operational
NORAD ID: 53256 Int'l Des: 2022-086 Owner: SPXS Country: US Constellation: starlink
LEOCIRCULAR

Über Starlink 4147

Beschreibung wird geladen...

Live-Position

3D-Globus wird geladen...

Nächste Überflüge

Höhenverlauf

Altitude vs Time

uPlot chart will show altitude changes over time

Zweizeiliger Elementsatz

1 53256U 22086Q 25303.73188231 -.00000225 00000-0 39469-5 0 9991
2 53256 53.2167 57.5213 0001378 93.0536 267.0614 15.08837418181444
Epoch: 30. Okt. 2025 • Age: 12 hours

Aktueller Status

Höhe 540.5 km
Geschwindigkeit 7.60 km/s
Subsatellitenpunkt 27.52°N, 92.76°E
Startdatum 24. Juli 2022
Alter 3.2 years
Typ internet

Technische Details

Klassifizierung Payload
Masse 297.00 kg
Trockenmasse 275.00 kg
Gesamtmasse 297.00 kg
Länge 0.20 m
Durchmesser 2.80 m
Spannweite 9.00 m
Form Box + pan
Hersteller SPXS
Bus-Typ Starlink
Phasenstatus In Orbit
Besitzer/Staat SPXS/US

Große Konstellationen

Loading constellations...